Wink, TX

11:03 AM CDT on April 26, 2017 (GMT -0500)
Winkler County

Weather History for KINK - January, 2014

Change the Weather History Date:

Monday, January 13, 2014

  Actual Average Record
Temperature  
Mean Temperature 50 °F -  
Max Temperature 62 °F 57 °F 83 °F (1957)
Min Temperature 37 °F 28 °F 3 °F (1964)
Degree Days  
Heating Degree Days 16    
Moisture  
Dew Point 7 °F    
Average Humidity 18    
Maximum Humidity 31    
Minimum Humidity 9    
Precipitation  
Precipitation 0.00 in - - ()
Sea Level Pressure  
Sea Level Pressure 30.09 in    
Wind  
Wind Speed 13 mph (NW)    
Max Wind Speed 26 mph    
Max Gust Speed 34 mph    
Visibility 10 miles    
Events      
Averages and records for this station are not official NWS values.
T = Trace of Precipitation, MM = Missing Value Source: NWS Daily Summary

Daily Weather History Graph

Daily Weather History Graph

Search for Another Location

Airport or City:

Trip Planner

Search our weather history database for the weather conditions in past years. The results will help you decide how hot, cold, wet, or windy it might be!

Date:

Astronomy

Jan. 13, 2014 Rise Set
Actual Time 7:53 AM CST 6:09 PM CST
Civil Twilight 7:27 AM CST 6:36 PM CST
Nautical Twilight 6:57 AM CST 7:06 PM CST
Astronomical Twilight 6:27 AM CST 7:35 PM CST
Moon 4:25 PM CST (1/13) 5:45 AM CST (1/13)
Length of Visible Light 11h 09m
Length of Day
10h 16m
Waxing Gibbous, 95% of the Moon is Illuminated
Jan 13
Waxing Gibbous
Jan 15
Full
Jan 23
Last Quarter
Jan 30
New
Feb 6
First Quarter

Hourly Weather History & Observations

Time (CST) Temp. Windchill Dew Point Humidity Pressure Visibility Wind Dir Wind Speed Gust Speed Precip Events Conditions
12:53 AM 48.9 °F - 19.0 °F 31% 29.93 in 10.0 mi North 10.4 mph - N/A   Clear
1:53 AM 48.0 °F - 18.0 °F 30% 29.96 in 10.0 mi North 9.2 mph - N/A   Clear
2:53 AM 51.1 °F - 12.0 °F 21% 29.99 in 10.0 mi North 15.0 mph - N/A   Clear
3:53 AM 48.0 °F - 8.1 °F 20% 30.04 in 10.0 mi North 11.5 mph - N/A   Clear
4:53 AM 48.0 °F - 3.9 °F 16% 30.06 in 10.0 mi North 19.6 mph 27.6 mph N/A   Clear
5:53 AM 46.9 °F - 3.9 °F 17% 30.08 in 10.0 mi North 21.9 mph 27.6 mph N/A   Clear
6:53 AM 46.0 °F 38.8 °F 5.0 °F 19% 30.11 in 10.0 mi NNW 18.4 mph 26.5 mph N/A   Clear
7:53 AM 37.9 °F 31.5 °F 6.1 °F 27% 30.16 in 10.0 mi NW 9.2 mph - N/A   Clear
8:53 AM 44.1 °F 38.1 °F 7.0 °F 22% 30.18 in 10.0 mi NNW 11.5 mph - N/A   Clear
9:53 AM 50.0 °F - 6.1 °F 17% 30.19 in 10.0 mi NNW 18.4 mph - N/A   Clear
10:53 AM 55.0 °F - 5.0 °F 13% 30.19 in 10.0 mi NNW 26.5 mph 34.5 mph N/A   Clear
11:45 AM 55.9 °F - 6.1 °F 14% 30.24 in 10.0 mi West 16.1 mph - N/A   Clear
11:53 AM 55.9 °F - 6.1 °F 14% 30.17 in 10.0 mi West 15.0 mph - N/A   Clear
12:53 PM 57.9 °F - 5.0 °F 12% 30.15 in 10.0 mi NW 15.0 mph 21.9 mph N/A   Clear
1:53 PM 59.0 °F - 3.0 °F 11% 30.11 in 10.0 mi WNW 18.4 mph - N/A   Clear
2:53 PM 61.0 °F - 1.9 °F 9% 30.09 in 10.0 mi WNW 15.0 mph 24.2 mph N/A   Clear
3:53 PM 62.1 °F - 1.9 °F 9% 30.07 in 10.0 mi NW 9.2 mph - N/A   Clear
4:53 PM 61.0 °F - 1.9 °F 9% 30.06 in 10.0 mi NW 4.6 mph - N/A   Clear
5:53 PM 59.0 °F - 3.9 °F 11% 30.04 in 10.0 mi Calm Calm - N/A   Clear
6:53 PM 53.1 °F - 3.9 °F 14% 30.05 in 10.0 mi SE 6.9 mph - N/A   Clear
7:53 PM 44.1 °F 38.6 °F 6.1 °F 21% 30.09 in 10.0 mi South 10.4 mph - N/A   Clear
8:53 PM 45.0 °F 40.6 °F 7.0 °F 21% 30.08 in 10.0 mi WSW 8.1 mph - N/A   Clear
9:53 PM 41.0 °F 35.8 °F 9.0 °F 27% 30.08 in 10.0 mi WSW 8.1 mph - N/A   Clear
10:53 PM 41.0 °F - 9.0 °F 27% 30.09 in 10.0 mi Calm Calm - N/A   Clear
11:53 PM 39.0 °F 34.0 °F 8.1 °F 28% 30.08 in 10.0 mi WNW 6.9 mph - N/A   Clear